User: anonymous   Login
Location: Theodore Roosevelt National Park
(46.9990°N, 103.4631°W)
Time: 12:54:20
(UTC-06:00)
Language:

Cosmos 2219 Rocket - Orbit

View from above orbital plane
View from above orbital plane
View from above satellite
View from above satellite

Ground track
Ground track

The orbit data is extracted from the following two-line orbital elements,

1 22220U 92076B   16275.50127959 -.00000269  00000-0 -11109-3 0  9995
2 22220  70.9989 243.7619 0014906 301.6335 149.4944 14.16402799234147
Epoch (UTC): 01 October 2016 12:01:50
Eccentricity: 0.0014906
inclination: 70.9989°
perigee height: 827 km
apogee height: 848 km
right ascension of ascending node: 243.7619°
argument of perigee: 301.6335°
revolutions per day: 14.16402799
mean anomaly at epoch: 149.4944°
orbit number at epoch: 23414

The dashed part of the orbit path shows where the satellite is in the earth's shadow,  

DLR